Location: College Park
(38.9810°N, 76.9370°W)
Time: 07:33:59
(UTC-05:00)

OTV 5 (USA 277) - Pass Details

Date: 03 January 2018
Orbit: 404 x 417 km, 43.0° (Epoch: 07 September)

Event Time Altitude Azimuth Distance (km) Brightness Sun altitude
Exits shadow 06:50:54 - 291° (WNW) 1,511 ? -7.1°
Reaches altitude 10° 06:51:02 10° 292° (WNW) 1,456 ? -7.1°
Maximum altitude 06:54:09 39° 3° (N) 623 ? -6.5°
Drops below altitude 10° 06:57:16 10° 74° (ENE) 1,458 ? -6.0°
Sets 06:59:27 0° 82° (E) 2,319 ? -5.6°
